Mayfld Grav Cnty AP, Mayfield, KY

6:31 PM CDT on October 14, 2019 (GMT -0500)
Mayfld Grav Cnty AP, Mayfield

Weather History for KM25 - September, 2019

Change the Weather History Date:

Monday, September 16, 2019

  Actual Average (KPAH) Record (KPAH)
Temperature  
Mean Temperature 80 °F -  
Max Temperature 95 °F 79 °F 97 °F (2019)
Min Temperature 66 °F 59 °F 44 °F (1966)
Cooling Degree Days 16    
Growing Degree Days 30 (Base 50)    
Moisture  
Dew Point 67 °F    
Average Humidity 68    
Maximum Humidity 94    
Minimum Humidity 38    
Precipitation  
Precipitation 0.00 in - - ()
Sea Level Pressure  
Sea Level Pressure 30.08 in    
Wind  
Wind Speed 1 mph (WNW)    
Max Wind Speed 7 mph    
Max Gust Speed -    
Visibility 10 miles    
Events      
Averages and records for this station are not official NWS values.
T = Trace of Precipitation, MM = Missing Value Source: NWS Daily Summary

Daily Weather History Graph

Daily Weather History Graph

Search for Another Location

Airport or City:

Astronomy

Sep. 16, 2019 Rise Set
Actual Time 6:37 AM CDT 7:00 PM CDT
Civil Twilight 6:11 AM CDT 7:26 PM CDT
Nautical Twilight 5:40 AM CDT 7:56 PM CDT
Astronomical Twilight 5:09 AM CDT 8:27 PM CDT
Moon 8:38 PM CDT (9/16) 8:41 AM CDT (9/16)
Length of Visible Light 13h 15m
Length of Day
12h 23m
Waning Gibbous, 94% of the Moon is Illuminated
Sep 16
Waning Gibbous
Sep 21
Last Quarter
Sep 28
New
Oct 5
First Quarter
Oct 13
Full

Hourly Weather History & Observations

Time (CDT) Temp. Heat Index Dew Point Humidity Pressure Visibility Wind Dir Wind Speed Gust Speed Precip Events Conditions
12:15 AM 71.6 °F - 68.0 °F 88% 30.10 in 10.0 mi Calm Calm - N/A   Clear
12:35 AM 71.6 °F - 68.0 °F 88% 30.10 in 10.0 mi Calm Calm - N/A   Clear
12:55 AM 71.6 °F - 68.0 °F 88% 30.10 in 10.0 mi Calm Calm - N/A   Clear
1:15 AM 69.8 °F - 66.2 °F 88% 30.10 in 10.0 mi Calm Calm - N/A   Clear
1:35 AM 71.6 °F - 66.2 °F 83% 30.10 in 10.0 mi Calm Calm - N/A   Clear
1:55 AM 69.8 °F - 66.2 °F 88% 30.10 in 10.0 mi Calm Calm - N/A   Clear
2:15 AM 69.8 °F - 66.2 °F 88% 30.09 in 10.0 mi Calm Calm - N/A   Clear
2:55 AM 69.8 °F - 66.2 °F 88% 30.09 in 10.0 mi Calm Calm - N/A   Clear
3:15 AM 69.8 °F - 66.2 °F 88% 30.09 in 10.0 mi Calm Calm - N/A   Clear
3:35 AM 69.8 °F - 66.2 °F 88% 30.09 in 10.0 mi Calm Calm - N/A   Clear
3:55 AM 69.8 °F - 64.4 °F 83% 30.09 in 10.0 mi Calm Calm - N/A   Clear
4:15 AM 69.8 °F - 66.2 °F 88% 30.10 in 10.0 mi Calm Calm - N/A   Clear
4:35 AM 69.8 °F - 66.2 °F 88% 30.10 in 10.0 mi Calm Calm - N/A   Clear
5:15 AM 68.0 °F - 66.2 °F 94% 30.10 in 10.0 mi Calm Calm - N/A   Clear
5:35 AM 68.0 °F - 66.2 °F 94% 30.10 in 10.0 mi Calm Calm - N/A   Clear
6:15 AM 68.0 °F - 64.4 °F 88% 30.11 in 10.0 mi SW 4.6 mph - N/A   Clear
6:35 AM 68.0 °F - 64.4 °F 88% 30.11 in 10.0 mi Calm Calm - N/A   Clear
6:55 AM 66.2 °F - 64.4 °F 94% 30.12 in 10.0 mi Calm Calm - N/A   Clear
7:15 AM 68.0 °F - 64.4 °F 88% 30.12 in 10.0 mi Calm Calm - N/A   Clear
7:35 AM 68.0 °F - 66.2 °F 94% 30.13 in 10.0 mi Calm Calm - N/A   Clear
7:55 AM 71.6 °F - 66.2 °F 83% 30.13 in 10.0 mi Calm Calm - N/A   Clear
8:35 AM 77.0 °F - 68.0 °F 74% 30.14 in 10.0 mi Calm Calm - N/A   Clear
9:15 AM 82.4 °F 85.4 °F 68.0 °F 62% 30.14 in 10.0 mi Calm Calm - N/A   Clear
9:35 AM 84.2 °F 86.6 °F 66.2 °F 55% 30.14 in 10.0 mi WNW 3.5 mph - N/A   Clear
9:55 AM 86.0 °F 89.4 °F 68.0 °F 55% 30.14 in 10.0 mi Calm Calm - N/A   Clear
10:15 AM 86.0 °F 90.4 °F 69.8 °F 58% 30.14 in 10.0 mi West 3.5 mph - N/A   Clear
10:35 AM 87.8 °F 92.6 °F 69.8 °F 55% 30.14 in 10.0 mi NW 6.9 mph - N/A   Clear
10:55 AM 87.8 °F 92.6 °F 69.8 °F 55% 30.14 in 10.0 mi NW 5.8 mph - N/A   Clear
11:15 AM 89.6 °F 94.7 °F 69.8 °F 52% 30.14 in 10.0 mi NW 5.8 mph - N/A   Clear
11:35 AM 89.6 °F 93.4 °F 68.0 °F 49% 30.13 in 10.0 mi WNW 5.8 mph - N/A   Clear
11:55 AM 89.6 °F 93.4 °F 68.0 °F 49% 30.12 in 10.0 mi NNW 6.9 mph - N/A   Clear
12:15 PM 91.4 °F 95.4 °F 68.0 °F 46% 30.12 in 10.0 mi WNW 5.8 mph - N/A   Clear
12:55 PM 91.4 °F 95.4 °F 68.0 °F 46% 30.10 in 10.0 mi WNW 6.9 mph - N/A   Clear
1:15 PM 91.4 °F 95.4 °F 68.0 °F 46% 30.09 in 10.0 mi NW 5.8 mph - N/A   Clear
1:35 PM 91.4 °F 95.4 °F 68.0 °F 46% 30.09 in 10.0 mi West 5.8 mph - N/A   Clear
1:55 PM 93.2 °F 97.7 °F 68.0 °F 44% 30.08 in 10.0 mi Calm Calm - N/A   Clear
2:15 PM 93.2 °F 97.7 °F 68.0 °F 44% 30.07 in 10.0 mi West 4.6 mph - N/A   Scattered Clouds
2:35 PM 95.0 °F 99.5 °F 68.0 °F 41% 30.06 in 10.0 mi NNW 3.5 mph - N/A   Scattered Clouds
2:55 PM 91.4 °F 94.0 °F 66.2 °F 43% 30.06 in 10.0 mi NNW 3.5 mph - N/A   Clear
3:35 PM 95.0 °F 98.5 °F 66.2 °F 39% 30.05 in 10.0 mi West 3.5 mph - N/A   Clear
3:55 PM 93.2 °F 96.2 °F 66.2 °F 41% 30.04 in 10.0 mi Calm Calm - N/A   Clear
4:15 PM 93.2 °F 94.9 °F 64.4 °F 38% 30.03 in 10.0 mi SW 3.5 mph - N/A   Clear
4:35 PM 93.2 °F 94.9 °F 64.4 °F 38% 30.03 in 10.0 mi South 4.6 mph - N/A   Clear
4:55 PM 93.2 °F 96.2 °F 66.2 °F 41% 30.03 in 10.0 mi Calm Calm - N/A   Clear
5:15 PM 93.2 °F 96.2 °F 66.2 °F 41% 30.03 in 10.0 mi Calm Calm - N/A   Clear
5:35 PM 91.4 °F 93.2 °F 64.4 °F 41% 30.03 in 10.0 mi Calm Calm - N/A   Clear
5:55 PM 91.4 °F 93.2 °F 64.4 °F 41% 30.03 in 10.0 mi Calm Calm - N/A   Clear
6:15 PM 91.4 °F 94.0 °F 66.2 °F 43% 30.03 in 10.0 mi Calm Calm - N/A   Clear
6:35 PM 89.6 °F 93.4 °F 68.0 °F 49% 30.03 in 10.0 mi Calm Calm - N/A   Clear
6:55 PM 86.0 °F 90.4 °F 69.8 °F 58% 30.03 in 10.0 mi Calm Calm - N/A   Clear
7:15 PM 82.4 °F 86.3 °F 69.8 °F 66% 30.03 in 10.0 mi Calm Calm - N/A   Clear
7:35 PM 80.6 °F 83.9 °F 69.8 °F 70% 30.03 in 10.0 mi Calm Calm - N/A   Clear
7:55 PM 80.6 °F 83.9 °F 69.8 °F 70% 30.03 in 10.0 mi Calm Calm - N/A   Clear
8:15 PM 78.8 °F - 69.8 °F 74% 30.03 in 10.0 mi Calm Calm - N/A   Clear
8:35 PM 78.8 °F - 69.8 °F 74% 30.03 in 10.0 mi Calm Calm - N/A   Clear
8:55 PM 78.8 °F - 69.8 °F 74% 30.03 in 10.0 mi Calm Calm - N/A   Clear
9:15 PM 77.0 °F - 69.8 °F 78% 30.04 in 10.0 mi Calm Calm - N/A   Clear
9:35 PM 77.0 °F - 69.8 °F 78% 30.04 in 10.0 mi Calm Calm - N/A   Clear
9:55 PM 77.0 °F - 69.8 °F 78% 30.04 in 10.0 mi Calm Calm - N/A   Clear
10:15 PM 77.0 °F - 69.8 °F 78% 30.05 in 10.0 mi Calm Calm - N/A   Clear
10:35 PM 77.0 °F - 69.8 °F 78% 30.05 in 10.0 mi West 3.5 mph - N/A   Clear
10:55 PM 75.2 °F - 69.8 °F 83% 30.05 in 10.0 mi West 3.5 mph - N/A   Clear
11:15 PM 77.0 °F - 68.0 °F 74% 30.04 in 10.0 mi West 3.5 mph - N/A   Clear
11:35 PM 75.2 °F - 69.8 °F 83% 30.04 in 10.0 mi NNW 3.5 mph - N/A   Clear
11:55 PM 73.4 °F - 69.8 °F 88% 30.04 in 10.0 mi Calm Calm - N/A   Clear